[[{"header":{"parameterUnit":"m.s-1","parameterCategory":2,"la1":30.2991,"la2":30.254,"lo1":-89.0895,"lo2":-89.0444,"dy":0.0017,"dx":0.0017,"nx":28,"ny":28,"refTime":"2023-10-28T03:00:00:Z","depth":"0","parameterNumber":2,"parameterNumberName":"U-component_of_CURRENTS"},"data":[0,0,0,0,0,0,0,0,0,0,0,0,0,0,0,0,0,0,0,0,0,0,0,0,0,0,0,0,0,0,0,0,0,0,0,0,0,0,0,0,0,0,0,0,0,0,0,0,0,0,0,0,0,0,0,0,0,0,-0.1899,-0.19,0,-0.1925,-0.1925,-0.1925,-0.1879,-0.1878,-0.1877,-0.1876,-0.1729,-0.1726,-0.1723,0,0,0,0,0,0,0,0,0,0,0,0,0,-0.1779,-0.1781,-0.1899,-0.19,-0.1901,-0.1925,-0.1925,-0.1925,-0.1879,-0.1878,-0.1876,-0.1875,-0.173,-0.1727,-0.1723,0,0,0,0,0,0,0,0,0,0,0,0,0,-0.1815,-0.1782,-0.1899,-0.1886,-0.1885,-0.1925,-0.1925,-0.1925,-0.1879,-0.1878,-0.1876,-0.1875,-0.1731,-0.1727,-0.1723,-0.1725,0,0,-0.1709,-0.1707,0,0,0,0,0,0,0,0,-0.1813,-0.1819,-0.1887,-0.1887,-0.1886,-0.1902,-0.1829,-0.1851,-0.1879,-0.1875,-0.1876,-0.1874,-0.1776,-0.1768,-0.177,-0.1718,-0.1711,-0.1708,-0.1706,-0.1704,-0.1703,0,0,0,0,0,0,0,-0.181,-0.1817,-0.1903,-0.1888,-0.1888,-0.1868,-0.1871,-0.1833,-0.1826,-0.1875,-0.1873,-0.1886,-0.1774,-0.1775,-0.1766,-0.1709,-0.1709,-0.1705,-0.1702,-0.17,-0.1654,-0.1655,0,0,0,0,0,0,-0.1824,-0.1815,-0.1903,-0.1905,-0.1852,-0.1872,-0.1875,-0.1894,-0.183,-0.1822,-0.1888,-0.1884,-0.1783,-0.1771,-0.176,-0.179,-0.1704,-0.17,-0.1697,-0.1653,-0.1654,-0.1656,0,0,0,0,0,0,-0.1821,-0.1831,-0.1902,-0.1864,-0.1873,-0.1876,-0.1897,-0.1895,-0.1895,-0.1842,-0.1829,-0.189,-0.1781,-0.1766,-0.1734,-0.1782,-0.1698,-0.1694,-0.1651,-0.1653,-0.1655,-0.1828,0,0,0,0,0,0,-0.1817,-0.183,-0.1839,-0.1866,-0.1876,-0.193,-0.1899,-0.1897,-0.1908,-0.1903,-0.184,-0.1825,-0.1779,-0.1741,-0.1729,-0.1774,-0.169,-0.1649,-0.1652,-0.1654,-0.1821,-0.1836,-0.1849,0,0,0,0,0,-0.1813,-0.1831,-0.184,-0.185,-0.1892,-0.1931,-0.1934,-0.1926,-0.191,-0.1917,-0.1876,-0.1827,-0.175,-0.1738,-0.1724,-0.177,-0.1648,-0.1651,-0.1654,-0.1814,-0.1833,-0.1849,0,0,0,0,0,0,-0.1783,-0.183,-0.1839,-0.1871,-0.1904,-0.1926,-0.1931,-0.1935,-0.1913,-0.1899,-0.184,-0.1824,-0.1811,-0.1762,-0.1751,-0.1762,-0.1693,-0.1694,-0.1819,-0.1836,-0.185,-0.1874,-0.1686,0,0,0,0,0,-0.1787,-0.181,-0.1856,-0.1882,-0.1899,-0.1918,-0.193,-0.1936,-0.1929,-0.1919,-0.1884,-0.1842,-0.1817,-0.1803,-0.1761,-0.1769,-0.1729,-0.1788,-0.1803,-0.1815,-0.1824,-0.1808,-0.1823,-0.1667,-0.1667,-0.1667,0,0,-0.1782,-0.1813,-0.1825,-0.1878,-0.1896,-0.1949,-0.1919,-0.1949,-0.1994,-0.1904,-0.1927,-0.188,-0.1825,-0.1835,-0.1827,-0.1801,-0.1842,-0.1819,-0.1831,-0.1833,-0.1813,-0.1828,-0.1842,-0.1669,-0.1668,-0.1668,0,0,-0.1797,-0.1815,-0.1844,-0.1887,-0.1935,-0.1958,-0.1974,-0.2006,-0.2014,-0.2035,-0.1989,-0.1981,-0.1931,-0.193,-0.1916,-0.1983,-0.1909,-0.196,-0.2066,-0.2052,-0.2065,-0.2076,-0.2067,-0.2076,-0.1981,-0.1981,-0.1981,0,-0.1786,-0.1838,-0.1858,-0.1915,-0.1949,-0.1972,-0.2022,-0.2059,-0.2078,-0.2094,-0.2054,-0.2033,-0.1989,-0.2031,-0.2058,-0.2021,-0.1988,-0.2012,-0.2074,-0.2083,-0.2091,-0.2079,-0.2087,-0.199,-0.1989,-0.1988,-0.1987,0,-0.184,-0.1885,-0.1907,-0.1989,-0.2031,-0.2073,-0.2139,-0.2178,-0.2183,-0.2211,-0.2234,-0.2192,-0.2173,-0.2179,-0.2138,-0.2192,-0.2142,-0.2087,-0.2038,-0.2118,-0.21,-0.2104,-0.2002,-0.1999,-0.1996,-0.1994,0,0,-0.1795,-0.1915,-0.1921,-0.1962,-0.2068,-0.2098,-0.2201,-0.2277,-0.2318,-0.2354,-0.2394,-0.2404,-0.2371,-0.2352,-0.2315,-0.2328,-0.2372,-0.2243,-0.2238,-0.2249,-0.2339,-0.2128,-0.2112,-0.2319,-0.2321,-0.2322,-0.2311,0,-0.182,-0.1909,-0.1978,-0.2067,-0.2111,-0.219,-0.2267,-0.2347,-0.2389,-0.2436,-0.246,-0.2458,-0.2444,-0.2413,-0.2442,-0.2365,-0.2387,-0.238,-0.2245,-0.2242,-0.2056,-0.2111,-0.194,-0.1899,-0.2315,-0.2316,-0.2316,0,-0.1839,-0.1896,-0.1968,-0.2078,-0.2103,-0.2164,-0.2262,-0.2339,-0.2449,-0.247,-0.2531,-0.2527,-0.2581,-0.2516,-0.2517,-0.2504,-0.2441,-0.2399,-0.2396,-0.2137,-0.2038,-0.1878,-0.1891,-0.1892,-0.2322,-0.2322,-0.2321,0,-0.1748,-0.1884,-0.192,-0.1966,-0.2101,-0.2141,-0.221,-0.2329,-0.2356,-0.2479,-0.2468,-0.2578,-0.2534,-0.2552,-0.2474,-0.2491,-0.2423,-0.2428,-0.2204,-0.219,-0.1984,-0.1946,-0.1986,-0.2421,-0.2421,-0.2421,-0.2421,0,-0.1725,-0.1758,-0.1873,-0.1893,-0.1916,-0.2059,-0.2091,-0.2183,-0.2283,-0.2276,-0.2441,-0.2404,-0.2523,-0.2496,-0.2488,-0.2334,-0.2432,-0.2227,-0.2168,-0.2037,-0.2006,-0.1942,-0.1967,-0.242,-0.242,-0.2421,-0.2421,0,-0.1599,-0.1687,-0.1717,-0.1836,-0.186,-0.1863,-0.1957,-0.1974,-0.2105,-0.2096,-0.2117,-0.2246,-0.2212,-0.2297,-0.2281,-0.2257,-0.2123,-0.2105,-0.1943,-0.1864,-0.1662,-0.17,-0.162,-0.1593,-0.1911,-0.1906,-0.1901,0,-0.1535,-0.1542,-0.1602,-0.1575,-0.1611,-0.1651,-0.165,-0.1823,-0.1842,-0.1942,-0.1895,-0.1924,-0.1861,-0.182,-0.181,-0.179,-0.1854,-0.1627,-0.1633,-0.1625,-0.1628,-0.1675,-0.1667,-0.1463,-0.1455,-0.1449,-0.1444,0,-0.139,-0.1398,-0.1403,-0.1352,-0.1331,-0.1334,-0.1375,-0.1367,-0.1536,-0.1539,-0.1499,-0.1473,-0.1429,-0.1328,-0.1326,-0.1318,-0.1559,-0.1488,-0.1534,-0.1316,-0.1317,-0.1268,-0.1523,-0.1388,-0.1393,-0.1397,-0.14,-0.1403,-0.1233,-0.1183,-0.1169,-0.1113,-0.1078,-0.1029,-0.1004,-0.1046,-0.1036,-0.1055,-0.1091,-0.1006,-0.0978,-0.0928,-0.093,-0.0909,-0.1051,-0.0936,-0.1001,-0.1065,-0.0975,-0.1085,-0.0829,-0.0832,-0.0834,-0.0835,-0.0837,0,-0.1064,-0.1025,-0.0941,-0.0883,-0.0793,-0.0844,-0.0822,-0.0799,-0.0735,-0.0716,-0.0669,-0.0539,-0.0441,-0.0507,-0.0481,-0.047,-0.0556,-0.053,-0.0629,-0.0662,-0.0791,-0.0703,-0.0338,-0.0338,-0.0338,-0.0339,-0.0339,-0.0339,-0.0964,-0.0852,-0.0826,-0.0643,-0.0596,-0.0498,-0.047,-0.0421,-0.0411,-0.0289,-0.0226,-0.019,-0.0244,-0.0263,-0.0282,-0.0296,-0.0413,-0.0318,-0.0474,-0.0628,-0.0676,-0.0721,-0.0648,-0.0277,-0.0277,-0.0296,-0.0296,-0.0296]},{"header":{"parameterUnit":"m.s-1","parameterCategory":2,"la1":30.2991,"la2":30.254,"lo1":-89.0895,"lo2":-89.0444,"dy":0.0017,"dx":0.0017,"nx":28,"ny":28,"refTime":"2023-10-28T03:00:00:Z","depth":"0","parameterNumber":3,"parameterNumberName":"V-component_of_CURRENTS"},"data":[0,0,0,0,0,0,0,0,0,0,0,0,0,0,0,0,0,0,0,0,0,0,0,0,0,0,0,0,0,0,0,0,0,0,0,0,0,0,0,0,0,0,0,0,0,0,0,0,0,0,0,0,0,0,0,0,0,0,0.0107,0.0108,0,0.0166,0.0166,0.0167,0.0176,0.0175,0.0175,0.0174,0.0177,0.0178,0.0178,0,0,0,0,0,0,0,0,0,0,0,0,0,0.0049,0.0049,0.0107,0.0108,0.0108,0.0166,0.0166,0.0167,0.0176,0.0175,0.0174,0.0174,0.0177,0.0178,0.0178,0,0,0,0,0,0,0,0,0,0,0,0,0,0.0087,0.005,0.0107,0.012,0.0121,0.0165,0.0166,0.0167,0.0176,0.0175,0.0174,0.0174,0.0177,0.0178,0.0179,0.0199,0,0,0.0181,0.0182,0,0,0,0,0,0,0,0,0.0085,0.0089,0.0117,0.0119,0.0121,0.0163,0.0147,0.0175,0.0176,0.0155,0.0174,0.0173,0.0168,0.017,0.0183,0.0199,0.02,0.0181,0.0182,0.0182,0.0182,0,0,0,0,0,0,0,0.0082,0.0087,0.013,0.0118,0.012,0.0139,0.0143,0.0153,0.0164,0.0157,0.0158,0.0165,0.0169,0.0182,0.0183,0.02,0.0181,0.0182,0.0183,0.0183,0.0235,0.0235,0,0,0,0,0,0,0.0074,0.0084,0.0128,0.0132,0.0101,0.014,0.0145,0.015,0.0165,0.0167,0.0165,0.0165,0.0181,0.0182,0.0183,0.02,0.0182,0.0183,0.0183,0.0234,0.0235,0.0236,0,0,0,0,0,0,0.0072,0.0077,0.0126,0.011,0.0117,0.0142,0.0148,0.0151,0.0165,0.0172,0.0173,0.0174,0.018,0.0182,0.0189,0.02,0.0183,0.0184,0.0233,0.0234,0.0235,0.0239,0,0,0,0,0,0,0.007,0.0076,0.0076,0.0109,0.0118,0.0147,0.0148,0.0153,0.0171,0.0171,0.018,0.018,0.018,0.0187,0.019,0.0201,0.0185,0.0232,0.0233,0.0235,0.0238,0.024,0.0243,0,0,0,0,0,0.0068,0.007,0.0076,0.0081,0.0117,0.0148,0.0154,0.0169,0.0172,0.0178,0.0183,0.018,0.02,0.0189,0.0191,0.0203,0.0231,0.0233,0.0235,0.0237,0.024,0.0243,0,0,0,0,0,0,0.004,0.0072,0.0079,0.0088,0.0114,0.0149,0.0156,0.0172,0.0185,0.0182,0.0187,0.0187,0.0201,0.0204,0.0192,0.0225,0.0217,0.0219,0.0218,0.0221,0.0223,0.0212,0.0185,0,0,0,0,0,0.0035,0.0045,0.0079,0.0085,0.0098,0.0129,0.0143,0.0158,0.0176,0.0182,0.0188,0.0198,0.0214,0.0216,0.0228,0.0242,0.0228,0.0254,0.0256,0.0258,0.0252,0.0232,0.0231,0.0242,0.0242,0.0242,0,0,0.0024,0.0044,0.0048,0.008,0.01,0.012,0.0135,0.0158,0.0174,0.0179,0.0192,0.0206,0.022,0.0237,0.0244,0.0237,0.0252,0.0261,0.0262,0.0255,0.0233,0.0232,0.0231,0.0243,0.0243,0.0243,0,0,0.0006,0.0026,0.0027,0.0053,0.0087,0.0113,0.012,0.0157,0.017,0.0191,0.0201,0.0219,0.0237,0.0252,0.0262,0.0286,0.0266,0.0293,0.0291,0.0272,0.027,0.0268,0.0259,0.0256,0.0291,0.0291,0.0291,0,-0.0018,-0.0004,0.0032,0.0046,0.0061,0.0109,0.0116,0.0148,0.0181,0.0185,0.0191,0.0225,0.0245,0.0265,0.0281,0.029,0.0272,0.0277,0.0272,0.027,0.0268,0.0259,0.0256,0.0292,0.0292,0.0292,0.0292,0,-0.0027,-0.0017,-0.0012,0.002,0.0047,0.0062,0.0112,0.0135,0.0159,0.0182,0.0203,0.0232,0.0246,0.0269,0.0285,0.0291,0.0282,0.0277,0.0259,0.0267,0.0257,0.0254,0.0293,0.0292,0.0292,0.0292,0,0,-0.0101,-0.0037,-0.0039,-0.0031,0.0033,0.0048,0.0088,0.0121,0.0128,0.0171,0.0165,0.0227,0.0238,0.0252,0.0277,0.0276,0.0268,0.0271,0.027,0.0251,0.0221,0.0289,0.0292,0.025,0.0249,0.0248,0.0223,0,-0.0135,-0.0122,-0.0073,-0.0062,-0.0054,0.001,0.0035,0.008,0.0114,0.0124,0.0169,0.018,0.0234,0.0235,0.0248,0.0256,0.0257,0.0275,0.0226,0.0225,0.0274,0.029,0.0314,0.0299,0.0219,0.0219,0.0218,0,-0.0176,-0.0158,-0.0155,-0.0114,-0.0106,-0.0087,-0.005,-0.0018,0.0031,0.0052,0.0085,0.0117,0.015,0.0178,0.02,0.0203,0.0215,0.0225,0.0223,0.028,0.0286,0.0278,0.0296,0.0332,0.0213,0.0213,0.0214,0,-0.0262,-0.0225,-0.0229,-0.0212,-0.0149,-0.0143,-0.0112,-0.0054,-0.0036,-0.0001,0.0006,0.0049,0.0064,0.0082,0.0154,0.0155,0.0163,0.0159,0.0233,0.0237,0.0247,0.0255,0.0285,0.0158,0.0158,0.0159,0.0159,0,-0.0326,-0.0329,-0.0274,-0.0276,-0.028,-0.0218,-0.0218,-0.0174,-0.0136,-0.0108,-0.0046,-0.0013,0.0038,0.0074,0.0116,0.0182,0.0134,0.0236,0.0236,0.0254,0.0262,0.0286,0.0292,0.0158,0.0158,0.0158,0.0158,0,-0.0408,-0.0377,-0.0376,-0.0331,-0.0319,-0.0323,-0.0274,-0.0263,-0.0223,-0.0189,-0.0178,-0.0085,-0.001,0.0052,0.0092,0.0144,0.0216,0.0217,0.0251,0.0259,0.0372,0.0378,0.0386,0.0419,0.0278,0.0279,0.0281,0,-0.0439,-0.0449,-0.0422,-0.0415,-0.0394,-0.0384,-0.0362,-0.0314,-0.0286,-0.0203,-0.0185,-0.0105,0.0007,0.0099,0.0183,0.0256,0.0278,0.0315,0.0339,0.0392,0.0396,0.0384,0.041,0.0347,0.0348,0.035,0.0351,0,-0.0481,-0.0478,-0.0468,-0.0459,-0.0448,-0.0432,-0.0398,-0.0392,-0.0311,-0.0259,-0.0147,-0.0059,0.0072,0.0206,0.0304,0.0346,0.0351,0.035,0.0377,0.0442,0.0452,0.048,0.0355,0.0364,0.0362,0.0362,0.0361,0.036,-0.0495,-0.0502,-0.0486,-0.0476,-0.0464,-0.0445,-0.0424,-0.0363,-0.0301,-0.0161,-0.0098,0.0091,0.0222,0.039,0.0424,0.0502,0.0471,0.0527,0.0524,0.0502,0.056,0.0488,0.0523,0.0522,0.0522,0.0522,0.0521,0,-0.0486,-0.0487,-0.0486,-0.047,-0.0455,-0.0448,-0.0406,-0.0352,-0.0242,-0.0078,0.0067,0.0311,0.0445,0.0537,0.0629,0.0666,0.0645,0.0675,0.0641,0.0656,0.0564,0.0597,0.0684,0.0684,0.0684,0.0684,0.0684,0.0684,-0.0472,-0.0471,-0.0473,-0.0447,-0.0433,-0.0392,-0.0361,-0.0262,-0.0135,0.013,0.0339,0.0496,0.0619,0.0692,0.077,0.0773,0.0787,0.0774,0.079,0.0709,0.0694,0.0679,0.0713,0.0823,0.0823,0.0879,0.088,0.088]}],[{"header":{"parameterUnit":"m.s-1","parameterCategory":2,"la1":30.2991,"la2":30.254,"lo1":-89.0895,"lo2":-89.0444,"dy":0.0017,"dx":0.0017,"nx":28,"ny":28,"refTime":"2023-10-28T03:00:00:Z","depth":"2","parameterNumber":2,"parameterNumberName":"U-component_of_CURRENTS"},"data":[0,0,0,0,0,0,0,0,0,0,0,0,0,0,0,0,0,0,0,0,0,0,0,0,0,0,0,0,0,0,0,0,0,0,0,0,0,0,0,0,0,0,0,0,0,0,0,0,0,0,0,0,0,0,0,0,0,0,-0.1055,-0.1055,0,-0.0953,-0.0951,-0.0949,-0.0947,-0.0949,-0.0952,-0.0954,-0.0975,-0.0974,-0.0972,0,0,0,0,0,0,0,0,0,0,0,0,0,-0.1071,-0.1071,-0.1055,-0.1055,-0.1055,-0.0953,-0.0951,-0.0948,-0.0947,-0.095,-0.0952,-0.0955,-0.0976,-0.0974,-0.0972,0,0,0,0,0,0,0,0,0,0,0,0,0,-0.1016,-0.1071,-0.1055,-0.105,-0.105,-0.0954,-0.0951,-0.0947,-0.0946,-0.095,-0.0953,-0.0956,-0.0977,-0.0974,-0.0972,-0.0887,0,0,-0.0965,-0.0964,0,0,0,0,0,0,0,0,-0.1019,-0.1014,-0.1051,-0.1051,-0.105,-0.0976,-0.0965,-0.0937,-0.0945,-0.0973,-0.0954,-0.0958,-0.0992,-0.0988,-0.0944,-0.0888,-0.0889,-0.0964,-0.0963,-0.0962,-0.0961,0,0,0,0,0,0,0,-0.1023,-0.1017,-0.1003,-0.1051,-0.105,-0.0993,-0.0989,-0.0957,-0.0958,-0.0971,-0.0974,-0.0979,-0.0991,-0.0946,-0.0945,-0.0889,-0.0964,-0.0962,-0.0961,-0.096,-0.0949,-0.095,0,0,0,0,0,0,-0.1064,-0.1022,-0.1007,-0.1001,-0.1055,-0.0991,-0.0986,-0.0987,-0.0956,-0.0956,-0.0976,-0.098,-0.0948,-0.0947,-0.0946,-0.1005,-0.0962,-0.096,-0.0958,-0.0948,-0.0949,-0.095,0,0,0,0,0,0,-0.1064,-0.1063,-0.1011,-0.1018,-0.101,-0.099,-0.0989,-0.0984,-0.0966,-0.096,-0.0962,-0.097,-0.0951,-0.0949,-0.1005,-0.1001,-0.0959,-0.0956,-0.0946,-0.0948,-0.095,-0.1021,0,0,0,0,0,0,-0.1065,-0.1063,-0.108,-0.1021,-0.1011,-0.1043,-0.0986,-0.0979,-0.0968,-0.0971,-0.0954,-0.0958,-0.0953,-0.1009,-0.1003,-0.0997,-0.0955,-0.0945,-0.0947,-0.0949,-0.1017,-0.1025,-0.1032,0,0,0,0,0,-0.1065,-0.1085,-0.108,-0.108,-0.1033,-0.1047,-0.1038,-0.1024,-0.0965,-0.1006,-0.0996,-0.096,-0.1017,-0.101,-0.1001,-0.0994,-0.0944,-0.0946,-0.0949,-0.1014,-0.1024,-0.1032,0,0,0,0,0,0,-0.1114,-0.1085,-0.108,-0.1095,-0.1114,-0.1054,-0.1064,-0.1024,-0.1025,-0.1017,-0.0987,-0.0994,-0.1026,-0.1008,-0.1,-0.0999,-0.0966,-0.0968,-0.1019,-0.1027,-0.1034,-0.1017,-0.0953,0,0,0,0,0,-0.1128,-0.1121,-0.1121,-0.1134,-0.1146,-0.1092,-0.1084,-0.1075,-0.1064,-0.1062,-0.1044,-0.1023,-0.1014,-0.1031,-0.1022,-0.1028,-0.104,-0.1015,-0.1022,-0.1028,-0.1011,-0.1035,-0.1043,-0.0959,-0.0959,-0.0959,0,0,-0.1144,-0.113,-0.1126,-0.1143,-0.1127,-0.1141,-0.1096,-0.1104,-0.111,-0.1064,-0.1067,-0.1045,-0.1022,-0.1044,-0.1053,-0.1042,-0.1076,-0.1032,-0.1037,-0.1015,-0.1038,-0.1046,-0.1054,-0.0961,-0.096,-0.096,0,0,-0.1165,-0.117,-0.1174,-0.1193,-0.1206,-0.1184,-0.1196,-0.1162,-0.1165,-0.1189,-0.1128,-0.1125,-0.1125,-0.1096,-0.1081,-0.1116,-0.1106,-0.1104,-0.1132,-0.1158,-0.1164,-0.117,-0.1274,-0.1288,-0.1116,-0.1116,-0.1116,0,-0.1197,-0.1193,-0.119,-0.1209,-0.1222,-0.1206,-0.123,-0.1222,-0.1211,-0.119,-0.1235,-0.1163,-0.1144,-0.1114,-0.1131,-0.1126,-0.1171,-0.1103,-0.1167,-0.1172,-0.1177,-0.1281,-0.1296,-0.112,-0.1119,-0.1119,-0.1119,0,-0.1219,-0.1228,-0.124,-0.1247,-0.1274,-0.1298,-0.131,-0.1326,-0.1315,-0.1267,-0.1271,-0.1274,-0.1235,-0.1217,-0.1189,-0.1176,-0.1213,-0.1169,-0.1146,-0.119,-0.1298,-0.1312,-0.1125,-0.1124,-0.1123,-0.1122,0,0,-0.1254,-0.1254,-0.126,-0.1265,-0.1296,-0.1312,-0.1349,-0.1351,-0.1343,-0.1354,-0.1375,-0.1315,-0.1277,-0.1257,-0.1219,-0.1226,-0.1315,-0.1215,-0.1215,-0.1321,-0.1445,-0.1192,-0.1184,-0.1289,-0.129,-0.1291,-0.1536,0,-0.128,-0.13,-0.1304,-0.1331,-0.1344,-0.1365,-0.14,-0.1392,-0.1409,-0.1438,-0.1405,-0.1399,-0.1308,-0.1322,-0.1312,-0.1295,-0.1343,-0.1257,-0.1381,-0.1386,-0.1155,-0.1185,-0.1058,-0.1236,-0.155,-0.1552,-0.1554,0,-0.1294,-0.1306,-0.1334,-0.1354,-0.1369,-0.1391,-0.1436,-0.1464,-0.1477,-0.1503,-0.1486,-0.147,-0.1454,-0.1428,-0.1435,-0.1391,-0.1422,-0.1429,-0.1438,-0.1167,-0.1152,-0.1225,-0.125,-0.1577,-0.1575,-0.1574,-0.1572,0,-0.1279,-0.1319,-0.1333,-0.1346,-0.1382,-0.1409,-0.1434,-0.1447,-0.1449,-0.1534,-0.1547,-0.1556,-0.1573,-0.1599,-0.1516,-0.1528,-0.1558,-0.1596,-0.1421,-0.1411,-0.1298,-0.1269,-0.1645,-0.1645,-0.1644,-0.1644,-0.1643,0,-0.1269,-0.1273,-0.1327,-0.133,-0.1345,-0.1402,-0.1422,-0.1454,-0.1518,-0.1474,-0.1548,-0.1532,-0.1602,-0.1586,-0.1594,-0.1487,-0.1616,-0.142,-0.1423,-0.1323,-0.1295,-0.1557,-0.1543,-0.1653,-0.1651,-0.1649,-0.1648,0,-0.1185,-0.1232,-0.1237,-0.1304,-0.1317,-0.132,-0.1358,-0.136,-0.1447,-0.1443,-0.1466,-0.1519,-0.1488,-0.1511,-0.1569,-0.1517,-0.1501,-0.1439,-0.1329,-0.1305,-0.1383,-0.1371,-0.14,-0.1392,-0.1385,-0.138,-0.1375,0,-0.113,-0.1129,-0.118,-0.1163,-0.1175,-0.1201,-0.1195,-0.1294,-0.1288,-0.1353,-0.1328,-0.1347,-0.1249,-0.1242,-0.1204,-0.1223,-0.1311,-0.1125,-0.1065,-0.134,-0.1344,-0.1342,-0.1338,-0.1052,-0.1045,-0.1039,-0.1035,0,-0.1008,-0.1033,-0.1026,-0.101,-0.1,-0.0992,-0.1007,-0.1003,-0.1099,-0.1097,-0.1054,-0.1006,-0.0967,-0.0864,-0.084,-0.084,-0.111,-0.1002,-0.1341,-0.1035,-0.1002,-0.1007,-0.1019,-0.0985,-0.099,-0.0994,-0.0996,-0.0998,-0.0898,-0.0854,-0.0859,-0.0823,-0.0808,-0.0777,-0.0749,-0.0767,-0.0744,-0.0735,-0.0763,-0.0659,-0.0698,-0.0534,-0.0528,-0.058,-0.0684,-0.0738,-0.0763,-0.0792,-0.0607,-0.0551,-0.0428,-0.043,-0.0432,-0.0433,-0.0434,0,-0.0774,-0.0725,-0.0669,-0.0637,-0.058,-0.0627,-0.0605,-0.0574,-0.0508,-0.0474,-0.0422,-0.0318,-0.0214,-0.028,-0.0243,-0.0254,-0.0359,-0.0294,-0.0449,-0.0493,-0.0534,-0.0344,-0.0094,-0.0094,-0.0093,-0.0093,0,0,-0.0691,-0.0599,-0.0569,-0.0438,-0.0413,-0.0337,-0.0313,-0.0266,-0.0233,-0.0132,-0.0073,-0.0083,-0.0125,-0.0061,-0.0095,-0.0071,-0.0289,-0.007,-0.0325,-0.054,-0.0581,-0.075,-0.0497,0,0,0,0,0]},{"header":{"parameterUnit":"m.s-1","parameterCategory":2,"la1":30.2991,"la2":30.254,"lo1":-89.0895,"lo2":-89.0444,"dy":0.0017,"dx":0.0017,"nx":28,"ny":28,"refTime":"2023-10-28T03:00:00:Z","depth":"2","parameterNumber":3,"parameterNumberName":"V-component_of_CURRENTS"},"data":[0,0,0,0,0,0,0,0,0,0,0,0,0,0,0,0,0,0,0,0,0,0,0,0,0,0,0,0,0,0,0,0,0,0,0,0,0,0,0,0,0,0,0,0,0,0,0,0,0,0,0,0,0,0,0,0,0,0,-0.0159,-0.016,0,-0.0267,-0.0268,-0.027,-0.0277,-0.0275,-0.0273,-0.0272,-0.0154,-0.0153,-0.0151,0,0,0,0,0,0,0,0,0,0,0,0,0,-0.0141,-0.0141,-0.0159,-0.016,-0.016,-0.0266,-0.0269,-0.0271,-0.0278,-0.0275,-0.0273,-0.0271,-0.0155,-0.0153,-0.0151,0,0,0,0,0,0,0,0,0,0,0,0,0,-0.0196,-0.0141,-0.0159,-0.0171,-0.0173,-0.0266,-0.0269,-0.0271,-0.0278,-0.0275,-0.0272,-0.027,-0.0155,-0.0153,-0.0151,-0.0196,0,0,-0.0145,-0.0144,0,0,0,0,0,0,0,0,-0.0193,-0.0197,-0.0169,-0.017,-0.0172,-0.0249,-0.0219,-0.0232,-0.0279,-0.0246,-0.0272,-0.0268,-0.0162,-0.0159,-0.02,-0.0191,-0.0186,-0.0145,-0.0144,-0.0143,-0.0142,0,0,0,0,0,0,0,-0.0189,-0.0194,-0.0209,-0.0169,-0.0171,-0.0233,-0.0236,-0.0224,-0.022,-0.0249,-0.0248,-0.0248,-0.0162,-0.0202,-0.0196,-0.0184,-0.0145,-0.0143,-0.0142,-0.0141,-0.0065,-0.0065,0,0,0,0,0,0,-0.0154,-0.0189,-0.0206,-0.0212,-0.0167,-0.0234,-0.0239,-0.0233,-0.0226,-0.0221,-0.0251,-0.0248,-0.0207,-0.0199,-0.0192,-0.0125,-0.0143,-0.0141,-0.014,-0.0066,-0.0065,-0.0064,0,0,0,0,0,0,-0.0153,-0.0154,-0.0201,-0.0198,-0.0207,-0.0235,-0.0231,-0.0237,-0.0265,-0.0228,-0.022,-0.0269,-0.0205,-0.0195,-0.0138,-0.0124,-0.014,-0.0138,-0.0067,-0.0066,-0.0065,-0.0066,0,0,0,0,0,0,-0.0152,-0.0153,-0.015,-0.0195,-0.0205,-0.0208,-0.0233,-0.0241,-0.0267,-0.0265,-0.0242,-0.0229,-0.0202,-0.0141,-0.0136,-0.0121,-0.0136,-0.0068,-0.0066,-0.0065,-0.0067,-0.0065,-0.0063,0,0,0,0,0,-0.0151,-0.0139,-0.015,-0.0152,-0.0195,-0.0206,-0.0217,-0.0236,-0.027,-0.0259,-0.0244,-0.0229,-0.0128,-0.0139,-0.0133,-0.0117,-0.0069,-0.0067,-0.0065,-0.0067,-0.0065,-0.0063,0,0,0,0,0,0,-0.0134,-0.014,-0.0152,-0.0144,-0.0154,-0.0203,-0.0209,-0.0244,-0.0243,-0.0235,-0.0223,-0.0207,-0.0151,-0.0138,-0.0152,-0.009,-0.0096,-0.0093,-0.01,-0.0097,-0.0096,-0.0095,-0.0135,0,0,0,0,0,-0.013,-0.0122,-0.0135,-0.0133,-0.0133,-0.0184,-0.0202,-0.021,-0.0214,-0.0216,-0.0201,-0.0178,-0.015,-0.0123,-0.0089,-0.0066,-0.0057,-0.005,-0.0048,-0.0047,-0.0042,-0.0009,-0.0004,-0.0058,-0.0058,-0.0058,0,0,-0.0128,-0.0129,-0.0128,-0.0129,-0.0152,-0.0156,-0.0188,-0.0194,-0.0196,-0.0197,-0.0185,-0.0167,-0.014,-0.0097,-0.0073,-0.0078,-0.0029,-0.0045,-0.0044,-0.0039,-0.0006,-0.0001,0.0004,-0.0057,-0.0057,-0.0058,0,0,-0.0127,-0.0115,-0.0115,-0.0113,-0.0119,-0.0134,-0.0132,-0.0162,-0.016,-0.0146,-0.0148,-0.0118,-0.0086,-0.0063,-0.0052,-0.0025,-0.0019,-0.0017,-0.001,0.0022,0.0027,0.0031,0.0032,0.0037,-0.0019,-0.0019,-0.0019,0,-0.0137,-0.013,-0.0117,-0.0115,-0.0116,-0.0122,-0.0127,-0.013,-0.0135,-0.0127,-0.0115,-0.009,-0.0069,-0.0038,-0.0029,-0.0021,-0.0012,-0.0023,0.0024,0.0028,0.0033,0.0033,0.0038,-0.0019,-0.0019,-0.0019,-0.0019,0,-0.0139,-0.0133,-0.0127,-0.0124,-0.0113,-0.0109,-0.0093,-0.0079,-0.0083,-0.0089,-0.0045,-0.0023,-0.0006,-0.0002,-0.0009,0.0023,0.0014,0.0023,0.0015,0.0038,0.0037,0.0042,-0.0019,-0.0019,-0.0019,-0.0019,0,0,-0.0185,-0.0142,-0.0146,-0.0145,-0.0115,-0.0113,-0.0078,-0.006,-0.0057,-0.0023,-0.0015,0.0022,0.0024,0.0036,0.0032,0.0051,0.0071,0.0043,0.0045,0.0038,0.0122,0.014,0.0147,0.0089,0.009,0.0091,0.0102,0,-0.021,-0.0204,-0.0168,-0.0165,-0.0163,-0.0122,-0.0099,-0.0068,-0.0037,-0.0015,0.0024,0.0039,0.0042,0.004,0.0067,0.0069,0.0088,0.0066,0.0106,0.0107,0.0116,0.0155,0.0141,0.0153,0.0107,0.0108,0.0109,0,-0.0244,-0.023,-0.0227,-0.0189,-0.0185,-0.0176,-0.0133,-0.0109,-0.005,-0.0024,0.0022,0.0048,0.0079,0.0078,0.0125,0.011,0.0118,0.0124,0.0125,0.0149,0.0136,0.0128,0.0164,0.0117,0.0117,0.0116,0.0115,0,-0.0307,-0.0278,-0.0276,-0.0266,-0.0218,-0.0206,-0.0181,-0.0124,-0.0102,-0.0039,-0.002,0.0047,0.0058,0.0109,0.0131,0.0127,0.0178,0.0178,0.0205,0.0205,0.0206,0.0205,0.0221,0.0221,0.0221,0.0221,0.0221,0,-0.036,-0.0359,-0.031,-0.0316,-0.0308,-0.0257,-0.0244,-0.0202,-0.0147,-0.0117,-0.0044,-0.0007,0.0066,0.0111,0.0142,0.0193,0.0195,0.0218,0.0222,0.0204,0.0202,0.0184,0.0179,0.0222,0.0222,0.0222,0.0222,0,-0.0431,-0.0402,-0.04,-0.0358,-0.0344,-0.0343,-0.0292,-0.0272,-0.0223,-0.0178,-0.016,-0.0061,0.0015,0.0084,0.0151,0.019,0.0241,0.0254,0.0214,0.0215,0.0238,0.0234,0.0296,0.0297,0.0298,0.0299,0.03,0,-0.0462,-0.0469,-0.0441,-0.0433,-0.0416,-0.0399,-0.0376,-0.0321,-0.0289,-0.0204,-0.018,-0.0097,-0.0004,0.0108,0.0185,0.0265,0.0258,0.0284,0.0291,0.0255,0.0252,0.0246,0.0241,0.0275,0.0275,0.0276,0.0276,0,-0.0509,-0.0504,-0.0496,-0.0481,-0.0467,-0.0447,-0.0411,-0.0399,-0.032,-0.0268,-0.0169,-0.009,0.0029,0.0145,0.0236,0.0274,0.028,0.0294,0.0282,0.0265,0.0238,0.0235,0.0229,0.0279,0.0278,0.0278,0.0278,0.0278,-0.0534,-0.0538,-0.0522,-0.0506,-0.049,-0.0467,-0.0449,-0.0389,-0.0331,-0.0213,-0.0157,-0.0013,0.0063,0.0235,0.0275,0.0308,0.0316,0.0325,0.0323,0.032,0.0323,0.03,0.035,0.0351,0.0351,0.0351,0.0351,0,-0.0543,-0.0535,-0.0529,-0.051,-0.0493,-0.048,-0.0437,-0.0394,-0.0302,-0.018,-0.0063,0.0048,0.0173,0.0244,0.0305,0.0341,0.0317,0.0338,0.0303,0.0301,0.0299,0.0299,0.032,0.032,0.032,0.032,0,0,-0.054,-0.0537,-0.0531,-0.0501,-0.0483,-0.0448,-0.042,-0.0343,-0.0247,-0.0111,0.0007,0.0145,0.0219,0.0258,0.0285,0.031,0.0292,0.0302,0.0325,0.0277,0.0275,0.0291,0.029,0,0,0,0,0]}],[{"header":{"parameterUnit":"m.s-1","parameterCategory":2,"la1":30.2991,"la2":30.254,"lo1":-89.0895,"lo2":-89.0444,"dy":0.0017,"dx":0.0017,"nx":28,"ny":28,"refTime":"2023-10-28T03:00:00:Z","depth":"4","parameterNumber":2,"parameterNumberName":"U-component_of_CURRENTS"},"data":[0,0,0,0,0,0,0,0,0,0,0,0,0,0,0,0,0,0,0,0,0,0,0,0,0,0,0,0,0,0,0,0,0,0,0,0,0,0,0,0,0,0,0,0,0,0,0,0,0,0,0,0,0,0,0,0,0,0,0.0145,0.0144,0,0.0095,0.0095,0.0094,0.006,0.006,0.0059,0.0059,0.0034,0.0034,0.0033,0,0,0,0,0,0,0,0,0,0,0,0,0,0.0103,0.0104,0.0145,0.0144,0.0144,0.0096,0.0095,0.0094,0.006,0.006,0.0059,0.0059,0.0034,0.0034,0.0033,0,0,0,0,0,0,0,0,0,0,0,0,0,0.0093,0.0105,0.0145,0.0122,0.012,0.0096,0.0095,0.0094,0.006,0.006,0.0059,0.0059,0.0035,0.0034,0.0033,0.003,0,0,0.003,0.003,0,0,0,0,0,0,0,0,0.0093,0.0094,0.0126,0.0124,0.0121,0.0085,0.0071,0.0074,0.006,0.0081,0.0059,0.0059,0.0055,0.0052,0.004,0.0029,0.0028,0.003,0.003,0.0029,0.0029,0,0,0,0,0,0,0,0.0094,0.0095,0.0123,0.0126,0.0123,0.0078,0.0078,0.007,0.0068,0.0079,0.0077,0.0074,0.0053,0.0041,0.004,0.0028,0.003,0.0029,0.0029,0.0028,0.0033,0.0034,0,0,0,0,0,0,0.011,0.0097,0.0125,0.0122,0.0109,0.008,0.0079,0.0095,0.0068,0.0063,0.0074,0.0073,0.0043,0.0041,0.0039,0.0015,0.0029,0.0028,0.0028,0.0033,0.0033,0.0034,0,0,0,0,0,0,0.011,0.0114,0.0127,0.0108,0.0107,0.0082,0.01,0.0094,0.0087,0.0064,0.006,0.0074,0.0043,0.004,0.0043,0.0015,0.0028,0.0027,0.0032,0.0033,0.0034,-0.0019,0,0,0,0,0,0,0.0109,0.0115,0.0133,0.011,0.0109,0.0115,0.01,0.0094,0.0087,0.0084,0.0062,0.0059,0.0042,0.0044,0.0042,0.0014,0.0027,0.0031,0.0032,0.0033,-0.0018,-0.0019,-0.0021,0,0,0,0,0,0.0108,0.0129,0.0135,0.0138,0.0136,0.0115,0.011,0.0088,0.0087,0.0082,0.0076,0.006,0.005,0.0044,0.0041,0.0012,0.003,0.0032,0.0033,-0.0017,-0.0019,-0.0021,0,0,0,0,0,0,0.0105,0.0128,0.0133,0.0157,0.0141,0.011,0.0105,0.0095,0.0085,0.0091,0.0069,0.0066,0.0057,0.0058,0.0052,0.0024,0.0038,0.0038,0.0,-0.0002,-0.0003,-0.0021,0.0026,0,0,0,0,0,0.012,0.0149,0.0145,0.0159,0.0158,0.0136,0.0127,0.0117,0.0104,0.0098,0.0084,0.0076,0.006,0.005,0.0045,0.003,0.0019,0.0014,0.0012,0.0011,-0.0002,-0.0016,-0.0022,0.0039,0.0039,0.0039,0,0,0.0114,0.0136,0.0146,0.0162,0.0149,0.0123,0.0129,0.0122,0.0097,0.01,0.0073,0.0074,0.006,0.0038,0.0033,0.0033,-0.0014,0.0012,0.001,-0.0001,-0.0016,-0.0022,-0.0028,0.004,0.004,0.004,0,0,0.0064,0.0145,0.0115,0.0115,0.0111,0.0129,0.0131,0.0113,0.0108,0.0094,0.0084,0.0076,0.0058,0.0029,0.0014,0.0008,-0.0015,0.001,-0.003,-0.0045,-0.0051,-0.0056,-0.0096,-0.0104,-0.0001,-0.0001,-0.0001,0,0.0047,0.0033,0.0098,0.0055,0.005,0.0129,0.0073,0.0092,0.0076,0.0065,0.0087,0.0047,0.0045,-0.0011,-0.0016,-0.0003,-0.0018,-0.0031,-0.0051,-0.0057,-0.0061,-0.01,-0.0109,-0.0003,-0.0003,-0.0002,-0.0002,0,-0.0048,-0.0057,-0.0066,-0.0069,-0.0065,-0.0067,-0.0036,-0.0017,0.0018,0.002,0.0,0.0005,-0.003,-0.0026,-0.0029,-0.0073,-0.0077,-0.0049,-0.0057,-0.0072,-0.011,-0.0119,-0.0006,-0.0005,-0.0005,-0.0004,0,0,-0.0059,-0.0127,-0.0124,-0.0161,-0.0116,-0.0119,-0.012,-0.0109,-0.0123,-0.0085,-0.0133,-0.0132,-0.011,-0.0124,-0.0122,-0.013,-0.0177,-0.0109,-0.0109,-0.0169,-0.0233,-0.0179,-0.0183,-0.0155,-0.0156,-0.0157,-0.0255,0,-0.0148,-0.0269,-0.0263,-0.0325,-0.0358,-0.0287,-0.0305,-0.0274,-0.0226,-0.0227,-0.0182,-0.0207,-0.0151,-0.018,-0.0173,-0.0172,-0.0198,-0.0155,-0.0192,-0.0194,-0.016,-0.019,-0.0161,-0.0261,-0.0263,-0.0265,-0.0266,0,-0.0223,-0.0278,-0.0408,-0.0453,-0.0463,-0.0485,-0.0454,-0.0464,-0.0418,-0.0407,-0.0386,-0.0335,-0.0339,-0.028,-0.0288,-0.0263,-0.0261,-0.0248,-0.0251,-0.0188,-0.0154,-0.0235,-0.0281,-0.028,-0.0278,-0.0277,-0.0276,0,-0.0232,-0.0347,-0.0446,-0.0461,-0.0514,-0.0554,-0.0545,-0.0522,-0.052,-0.0511,-0.0512,-0.0484,-0.0475,-0.0448,-0.0381,-0.0353,-0.0382,-0.0343,-0.0301,-0.0299,-0.0298,-0.0291,-0.037,-0.0369,-0.0369,-0.0369,-0.0369,0,-0.0279,-0.0342,-0.0467,-0.0502,-0.0575,-0.0609,-0.0655,-0.0651,-0.0654,-0.0631,-0.0602,-0.0579,-0.051,-0.0481,-0.0435,-0.0388,-0.0429,-0.0325,-0.0319,-0.0318,-0.0312,-0.0306,-0.0297,-0.0373,-0.0372,-0.0371,-0.037,0,-0.0277,-0.0379,-0.0459,-0.0555,-0.059,-0.0624,-0.068,-0.0694,-0.0731,-0.0706,-0.0704,-0.0657,-0.061,-0.0555,-0.0519,-0.0462,-0.0431,-0.0415,-0.0451,-0.0443,-0.0336,-0.0328,-0.0392,-0.0391,-0.039,-0.0389,-0.0389,0,-0.0293,-0.0354,-0.0459,-0.05,-0.0549,-0.0619,-0.0649,-0.0703,-0.0698,-0.0716,-0.0683,-0.0665,-0.0607,-0.0538,-0.0492,-0.0453,-0.0419,-0.0448,-0.0356,-0.035,-0.0338,-0.0332,-0.0326,-0.0387,-0.0387,-0.0387,-0.0386,0,-0.0258,-0.0303,-0.0363,-0.0457,-0.0514,-0.0564,-0.0609,-0.0618,-0.0649,-0.0698,-0.063,-0.0586,-0.054,-0.0471,-0.0465,-0.0418,-0.0447,-0.0437,-0.0438,-0.0351,-0.0344,-0.0332,-0.0327,-0.0383,-0.0384,-0.0384,-0.0384,0,-0.0168,-0.0205,-0.0289,-0.0376,-0.0448,-0.0475,-0.0522,-0.0526,-0.0545,-0.0568,-0.0533,-0.0511,-0.0505,-0.0455,-0.0429,-0.0398,-0.0363,-0.0348,-0.0352,-0.0356,-0.0289,-0.0272,-0.0299,0,0,0,0,0,-0.0035,-0.0109,-0.0196,-0.0285,-0.0365,-0.0402,-0.0469,-0.0513,-0.056,-0.0486,-0.0509,-0.0448,-0.0395,-0.0392,-0.0342,-0.0405,-0.0373,-0.0349,-0.036,-0.0365,-0.0368,-0.0287,0,0,0,0,0,0,0.0025,-0.0031,-0.0153,-0.0201,-0.0246,-0.0306,-0.0342,-0.0382,-0.0356,-0.0401,-0.0368,-0.0408,-0.036,-0.0387,-0.0318,-0.032,-0.0318,-0.0349,-0.0348,-0.0362,-0.0366,-0.0369,-0.0286,0,0,0,0,0]},{"header":{"parameterUnit":"m.s-1","parameterCategory":2,"la1":30.2991,"la2":30.254,"lo1":-89.0895,"lo2":-89.0444,"dy":0.0017,"dx":0.0017,"nx":28,"ny":28,"refTime":"2023-10-28T03:00:00:Z","depth":"4","parameterNumber":3,"parameterNumberName":"V-component_of_CURRENTS"},"data":[0,0,0,0,0,0,0,0,0,0,0,0,0,0,0,0,0,0,0,0,0,0,0,0,0,0,0,0,0,0,0,0,0,0,0,0,0,0,0,0,0,0,0,0,0,0,0,0,0,0,0,0,0,0,0,0,0,0,0.0029,0.0028,0,0.0008,0.0008,0.0008,0.001,0.001,0.0011,0.0011,-0.0019,-0.002,-0.0021,0,0,0,0,0,0,0,0,0,0,0,0,0,0.007,0.0069,0.0029,0.0028,0.0028,0.0008,0.0008,0.0008,0.001,0.001,0.0011,0.0011,-0.0019,-0.002,-0.0021,0,0,0,0,0,0,0,0,0,0,0,0,0,0.0052,0.0069,0.0029,0.0026,0.0025,0.0008,0.0008,0.0008,0.001,0.001,0.0011,0.0011,-0.0018,-0.002,-0.0021,-0.0038,0,0,-0.0026,-0.0027,0,0,0,0,0,0,0,0,0.0053,0.0051,0.0027,0.0026,0.0025,0.0011,0.0011,-0.0008,0.001,0.0017,0.0011,0.0011,-0.0011,-0.0013,-0.0016,-0.0039,-0.004,-0.0026,-0.0027,-0.0028,-0.0028,0,0,0,0,0,0,0,0.0054,0.0052,0.0022,0.0026,0.0025,0.0026,0.0024,0.0008,0.0002,0.0017,0.0016,0.0012,-0.0011,-0.0015,-0.0017,-0.0041,-0.0026,-0.0028,-0.0029,-0.0029,-0.0077,-0.0078,0,0,0,0,0,0,0.0054,0.0053,0.0022,0.0021,0.0039,0.0024,0.0022,0.0016,0.0002,0.0,0.0012,0.0012,-0.0012,-0.0015,-0.0018,-0.0039,-0.0028,-0.0029,-0.003,-0.0077,-0.0077,-0.0078,0,0,0,0,0,0,0.0055,0.0051,0.0023,0.0036,0.0032,0.0023,0.0017,0.0016,0.0013,-0.0001,-0.0003,0.001,-0.0012,-0.0016,-0.0032,-0.004,-0.003,-0.0031,-0.0076,-0.0077,-0.0077,-0.0081,0,0,0,0,0,0,0.0056,0.0052,0.0048,0.0035,0.0031,0.0003,0.0016,0.0015,0.0009,0.001,-0.0003,-0.0006,-0.0012,-0.003,-0.0034,-0.0042,-0.0033,-0.0076,-0.0077,-0.0077,-0.008,-0.0082,-0.0083,0,0,0,0,0,0.0058,0.004,0.0048,0.0045,0.0026,0.0002,-0.0001,-0.0004,0.0009,-0.0002,-0.0003,-0.0005,-0.0037,-0.0032,-0.0036,-0.0045,-0.0076,-0.0076,-0.0077,-0.008,-0.0081,-0.0083,0,0,0,0,0,0,0.0051,0.0038,0.0047,0.0026,0.0015,0.0002,-0.0012,-0.0004,-0.0013,-0.0011,-0.0012,-0.0016,-0.0033,-0.0039,-0.0033,-0.006,-0.0056,-0.0058,-0.0057,-0.0058,-0.0059,-0.0043,-0.0034,0,0,0,0,0,0.0051,0.0036,0.0027,0.001,0.0003,0.0001,-0.0007,-0.0009,-0.0018,-0.002,-0.0031,-0.0037,-0.0041,-0.0049,-0.0062,-0.0079,-0.0051,-0.0087,-0.0088,-0.0088,-0.0078,-0.0041,-0.0037,-0.008,-0.008,-0.008,0,0,0.0045,0.0034,0.0028,0.0008,0.0,-0.0021,-0.0004,-0.0024,-0.0035,-0.0024,-0.005,-0.0046,-0.0046,-0.0064,-0.0072,-0.0069,-0.0062,-0.009,-0.009,-0.0079,-0.0041,-0.0036,-0.0032,-0.0081,-0.0081,-0.0081,0,0,0.0015,0.0015,-0.0008,-0.0017,-0.0034,-0.0041,-0.0045,-0.0061,-0.0062,-0.0084,-0.0068,-0.006,-0.0093,-0.0078,-0.0076,-0.009,-0.0069,-0.0104,-0.0097,-0.0061,-0.0056,-0.0052,-0.0007,0.0001,-0.0104,-0.0104,-0.0104,0,0.0011,-0.0013,-0.0019,-0.0043,-0.0047,-0.005,-0.0067,-0.008,-0.0098,-0.0088,-0.0099,-0.009,-0.0095,-0.0073,-0.008,-0.009,-0.0065,-0.0091,-0.006,-0.0055,-0.0051,-0.0006,0.0003,-0.0104,-0.0104,-0.0104,-0.0104,0,-0.0036,-0.0048,-0.0066,-0.0091,-0.01,-0.0119,-0.0128,-0.0137,-0.0137,-0.0137,-0.0124,-0.0117,-0.01,-0.0106,-0.01,-0.0068,-0.0058,-0.0064,-0.0052,-0.0046,-0.0,0.001,-0.0104,-0.0104,-0.0104,-0.0104,0,0,-0.0071,-0.0089,-0.0101,-0.0096,-0.0117,-0.0131,-0.0146,-0.0148,-0.0134,-0.0155,-0.0127,-0.0128,-0.0103,-0.0096,-0.0077,-0.0048,0.0003,-0.0045,-0.0043,0.0007,0.0093,0.0042,0.0049,0.0002,0.0003,0.0004,0.0114,0,-0.0102,-0.014,-0.0143,-0.0168,-0.0175,-0.0163,-0.017,-0.0169,-0.0161,-0.0147,-0.012,-0.0101,-0.0107,-0.0081,-0.0056,-0.0008,0.0028,-0.0025,0.0072,0.0076,0.0037,0.0057,0.0009,0.0122,0.0124,0.0126,0.0127,0,-0.0153,-0.0162,-0.0187,-0.0167,-0.017,-0.0188,-0.0163,-0.0167,-0.0142,-0.0126,-0.0095,-0.0075,-0.0025,-0.0037,0.0052,0.0018,0.0056,0.0088,0.0092,0.0055,0.0043,0.0112,0.0145,0.0143,0.0142,0.0141,0.014,0,-0.0177,-0.0192,-0.0204,-0.0205,-0.0197,-0.0192,-0.0188,-0.0163,-0.0148,-0.0105,-0.008,-0.0028,0.0009,0.0059,0.0108,0.009,0.0204,0.0189,0.0185,0.0183,0.0199,0.0193,0.0257,0.0256,0.0256,0.0256,0.0256,0,-0.0211,-0.0219,-0.0215,-0.0226,-0.0222,-0.0203,-0.0191,-0.0173,-0.0132,-0.0109,-0.0069,-0.003,0.0032,0.0093,0.0133,0.0188,0.0227,0.0199,0.0208,0.0194,0.0186,0.0207,0.0199,0.026,0.0259,0.0258,0.0258,0,-0.0241,-0.0244,-0.0251,-0.0243,-0.024,-0.024,-0.0214,-0.0198,-0.015,-0.0112,-0.0095,-0.0019,0.0053,0.0114,0.0211,0.0221,0.0281,0.0291,0.0286,0.0291,0.0235,0.0226,0.0309,0.0308,0.0308,0.0307,0.0306,0,-0.0259,-0.0268,-0.0276,-0.0285,-0.0286,-0.0277,-0.0271,-0.0225,-0.0199,-0.0109,-0.009,-0.0006,0.0037,0.0156,0.0205,0.0288,0.028,0.0326,0.0263,0.024,0.0241,0.0233,0.0226,0.0305,0.0305,0.0305,0.0305,0,-0.0276,-0.0286,-0.0296,-0.0316,-0.0324,-0.0319,-0.0299,-0.0277,-0.021,-0.0169,-0.0074,-0.001,0.0067,0.0141,0.0204,0.0256,0.0303,0.0318,0.0319,0.0261,0.0237,0.0236,0.023,0.0302,0.0303,0.0303,0.0303,0,-0.0277,-0.0298,-0.0316,-0.033,-0.0348,-0.0344,-0.0333,-0.0282,-0.0242,-0.0134,-0.0107,-0.001,0.0056,0.0125,0.0184,0.0225,0.0221,0.0233,0.0238,0.0242,0.0164,0.012,0.0169,0,0,0,0,0,-0.0253,-0.0281,-0.0318,-0.0336,-0.0362,-0.0362,-0.0338,-0.0316,-0.0249,-0.019,-0.014,-0.0069,0.0027,0.0081,0.0112,0.0138,0.0208,0.0173,0.0219,0.0288,0.0291,0.0204,0,0,0,0,0,0,-0.0237,-0.0273,-0.0312,-0.0336,-0.035,-0.0364,-0.035,-0.0312,-0.0263,-0.0191,-0.0137,-0.0077,0.0012,0.0004,0.0109,0.0123,0.0153,0.0228,0.0229,0.0287,0.0289,0.0292,0.0203,0,0,0,0,0]}]]